LPE2368 SABE-SPJC

Flight info

Callsign LPE2368
Flight time N/A
Altitude 36000
Route BIVAM4B BIVAM UW8 ERE UT680 TUC UL550 SCO
Aircraft A320/M-SDE3FGHIRWY/LB1

Departure

Time 2026-05-04 14:48
Airport Aeroparque Jorge Newbery (SABE)

Arrival

Time N/A
Airport Jorge Chávez International Airport (SPJC)
Time Latitude Longitude Altitude Speed Heading
2026-05-04 14:20 -34.55658 -58.41534 29 ft 0 kts 12°
2026-05-04 14:36 -34.55669 -58.41537 29 ft 4 kts
2026-05-04 14:36 -34.55694 -58.41536 30 ft 4 kts 333°
2026-05-04 14:36 -34.55712 -58.41521 27 ft 4 kts 313°
2026-05-04 14:36 -34.55727 -58.41494 30 ft 4 kts 297°
2026-05-04 14:37 -34.55731 -58.41485 30 ft 0 kts 297°
2026-05-04 14:40 -34.55729 -58.41489 30 ft 3 kts 297°
2026-05-04 14:40 -34.55721 -58.41513 25 ft 3 kts 286°
2026-05-04 14:40 -34.55727 -58.41550 25 ft 6 kts 235°
2026-05-04 14:41 -34.55756 -58.41577 26 ft 5 kts 215°
2026-05-04 14:41 -34.55779 -58.41594 25 ft 3 kts 200°
2026-05-04 14:41 -34.55846 -58.41488 27 ft 12 kts 118°
2026-05-04 14:42 -34.55913 -58.41329 28 ft 9 kts 117°
2026-05-04 14:42 -34.55943 -58.41270 29 ft 7 kts 128°
2026-05-04 14:42 -34.55983 -58.41209 30 ft 10 kts 128°
2026-05-04 14:43 -34.56020 -58.41150 27 ft 8 kts 126°
2026-05-04 14:43 -34.56050 -58.41100 26 ft 6 kts 125°
2026-05-04 14:43 -34.56073 -58.41062 29 ft 5 kts 128°
2026-05-04 14:43 -34.56091 -58.41034 26 ft 4 kts 128°
2026-05-04 14:44 -34.56120 -58.40986 26 ft 10 kts 124°
2026-05-04 14:44 -34.56159 -58.40912 29 ft 11 kts 118°
2026-05-04 14:44 -34.56170 -58.40835 25 ft 8 kts 99°
2026-05-04 14:44 -34.56203 -58.40772 27 ft 9 kts 125°
2026-05-04 14:45 -34.56241 -58.40705 29 ft 11 kts 123°
2026-05-04 14:45 -34.56285 -58.40626 27 ft 12 kts 123°
2026-05-04 14:45 -34.56334 -58.40557 28 ft 10 kts 139°
2026-05-04 14:45 -34.56386 -58.40501 28 ft 11 kts 138°
2026-05-04 14:46 -34.56421 -58.40463 29 ft 10 kts 138°
2026-05-04 14:46 -34.56468 -58.40411 27 ft 8 kts 138°
2026-05-04 14:46 -34.56526 -58.40387 25 ft 5 kts 191°
2026-05-04 14:46 -34.56553 -58.40410 28 ft 10 kts 234°
2026-05-04 14:47 -34.56547 -58.40463 27 ft 0 kts 307°
2026-05-04 14:47 -34.56514 -58.40520 25 ft 35 kts 304°
2026-05-04 14:47 -34.56239 -58.41015 29 ft 103 kts 304°
2026-05-04 14:47 -34.55732 -58.41915 29 ft 153 kts 304°
2026-05-04 14:48 -34.55125 -58.43012 600 ft 154 kts 304°
2026-05-04 14:48 -34.54516 -58.44076 1347 ft 152 kts 310°
2026-05-04 14:48 -34.53724 -58.44999 1821 ft 168 kts 321°
2026-05-04 14:48 -34.52639 -58.45704 2205 ft 186 kts 337°
2026-05-04 14:49 -34.51309 -58.46046 2556 ft 207 kts 354°
2026-05-04 14:49 -34.49786 -58.45848 2841 ft 236 kts 13°
2026-05-04 14:49 -34.48222 -58.44944 3274 ft 259 kts 28°
2026-05-04 14:49 -34.46675 -58.43769 4023 ft 264 kts 27°
2026-05-04 14:50 -34.45017 -58.42930 4837 ft 261 kts
2026-05-04 14:50 -34.43226 -58.42975 5622 ft 257 kts 343°
2026-05-04 14:50 -34.41623 -58.43897 6418 ft 257 kts 324°
2026-05-04 14:50 -34.40148 -58.45147 7147 ft 261 kts 324°
2026-05-04 14:51 -34.38647 -58.46420 7827 ft 266 kts 324°
2026-05-04 14:51 -34.37108 -58.47722 8497 ft 272 kts 324°
2026-05-04 14:51 -34.35552 -58.49032 9146 ft 278 kts 323°
2026-05-04 14:51 -34.33944 -58.50387 9829 ft 284 kts 323°
2026-05-04 14:52 -34.32285 -58.51782 10265 ft 298 kts 323°
2026-05-04 14:52 -34.30514 -58.53274 10425 ft 322 kts 323°
2026-05-04 14:52 -34.28627 -58.54862 10777 ft 335 kts 323°
2026-05-04 14:52 -34.26718 -58.56461 11392 ft 339 kts 322°
2026-05-04 14:53 -34.24767 -58.58093 12071 ft 341 kts 322°
2026-05-04 14:53 -34.22810 -58.59730 12779 ft 343 kts 321°
2026-05-04 14:53 -34.20845 -58.61377 13471 ft 344 kts 321°
2026-05-04 14:53 -34.18866 -58.63036 14108 ft 346 kts 320°
2026-05-04 14:54 -34.16879 -58.64702 14717 ft 348 kts 320°
2026-05-04 14:54 -34.14885 -58.66371 15327 ft 349 kts 320°
2026-05-04 14:54 -34.12902 -58.68030 15910 ft 351 kts 320°
2026-05-04 14:54 -34.10882 -58.69718 16482 ft 353 kts 320°
2026-05-04 14:55 -34.08858 -58.71411 17054 ft 355 kts 320°
2026-05-04 14:55 -34.06814 -58.73117 17632 ft 357 kts 320°
2026-05-04 14:55 -34.04761 -58.74830 18209 ft 359 kts 320°
2026-05-04 14:55 -34.02725 -58.76526 18680 ft 361 kts 320°
2026-05-04 14:56 -34.00643 -58.78258 19125 ft 364 kts 320°
2026-05-04 14:56 -33.98543 -58.80005 19558 ft 368 kts 320°
2026-05-04 14:56 -33.96424 -58.81767 19983 ft 371 kts 319°
2026-05-04 14:56 -33.94288 -58.83545 20388 ft 374 kts 319°
2026-05-04 14:57 -33.92160 -58.85318 20782 ft 378 kts 319°
2026-05-04 14:57 -33.89985 -58.87129 21184 ft 382 kts 319°
2026-05-04 14:57 -33.87781 -58.88956 21589 ft 385 kts 319°
2026-05-04 14:57 -33.85563 -58.90794 21996 ft 388 kts 319°
2026-05-04 14:58 -33.83320 -58.92649 22389 ft 391 kts 319°
2026-05-04 14:58 -33.81068 -58.94513 22778 ft 394 kts 319°
2026-05-04 14:58 -33.78824 -58.96372 23154 ft 397 kts 319°
2026-05-04 14:58 -33.76532 -58.98267 23535 ft 401 kts 319°
2026-05-04 14:59 -33.74223 -59.00173 23826 ft 404 kts 319°
2026-05-04 14:59 -33.71891 -59.02097 24153 ft 406 kts 318°
2026-05-04 14:59 -33.67240 -59.05935 24809 ft 410 kts 318°
2026-05-04 15:00 -33.64878 -59.07882 25133 ft 412 kts 318°
2026-05-04 15:00 -33.62512 -59.09833 25465 ft 414 kts 318°
2026-05-04 15:00 -33.60134 -59.11798 25765 ft 416 kts 318°
2026-05-04 15:01 -33.55327 -59.15761 26347 ft 421 kts 318°
2026-05-04 15:01 -33.52903 -59.17751 26646 ft 423 kts 318°
2026-05-04 15:01 -33.50465 -59.19748 26944 ft 425 kts 318°
2026-05-04 15:01 -33.48019 -59.21748 27241 ft 427 kts 318°
2026-05-04 15:02 -33.45557 -59.23760 27536 ft 429 kts 318°
2026-05-04 15:02 -33.43085 -59.25782 27827 ft 431 kts 317°
2026-05-04 15:02 -33.40603 -59.27814 28118 ft 433 kts 317°
2026-05-04 15:02 -33.38111 -59.29855 28376 ft 435 kts 317°
2026-05-04 15:03 -33.35615 -59.31899 28655 ft 437 kts 317°
2026-05-04 15:03 -33.33130 -59.33930 28956 ft 438 kts 317°
2026-05-04 15:03 -33.30605 -59.35990 29234 ft 440 kts 317°
2026-05-04 15:03 -33.28071 -59.38058 29497 ft 441 kts 317°
2026-05-04 15:04 -33.25531 -59.40132 29752 ft 443 kts 317°
2026-05-04 15:04 -33.22979 -59.42215 30009 ft 445 kts 317°
2026-05-04 15:04 -33.20416 -59.44302 30229 ft 446 kts 317°
2026-05-04 15:04 -33.17842 -59.46395 30417 ft 448 kts 317°
2026-05-04 15:05 -33.15262 -59.48489 30673 ft 448 kts 317°
2026-05-04 15:05 -33.12721 -59.50548 30968 ft 447 kts 317°
2026-05-04 15:05 -33.10148 -59.52639 31259 ft 446 kts 316°
2026-05-04 15:05 -33.07587 -59.54718 31541 ft 446 kts 316°
2026-05-04 15:06 -33.05025 -59.56794 31828 ft 445 kts 316°
2026-05-04 15:06 -33.02462 -59.58868 32111 ft 445 kts 316°
2026-05-04 15:06 -32.99899 -59.60942 32362 ft 444 kts 316°
2026-05-04 15:07 -32.94777 -59.65080 32938 ft 443 kts 316°
2026-05-04 15:07 -32.92229 -59.67140 33220 ft 443 kts 315°
2026-05-04 15:07 -32.89677 -59.69199 33503 ft 442 kts 315°
2026-05-04 15:07 -32.87167 -59.71221 33776 ft 442 kts 315°
2026-05-04 15:08 -32.84620 -59.73275 34047 ft 441 kts 315°
2026-05-04 15:08 -32.82074 -59.75329 34270 ft 440 kts 315°
2026-05-04 15:08 -32.79549 -59.77368 34510 ft 440 kts 315°
2026-05-04 15:08 -32.77014 -59.79411 34765 ft 438 kts 315°
2026-05-04 15:09 -32.74494 -59.81437 35026 ft 437 kts 315°
2026-05-04 15:09 -32.71971 -59.83458 35280 ft 435 kts 315°
2026-05-04 15:09 -32.69461 -59.85463 35534 ft 433 kts 315°
2026-05-04 15:10 -32.64506 -59.89428 35956 ft 430 kts 315°
2026-05-04 15:10 -32.62031 -59.91411 36005 ft 427 kts 315°
2026-05-04 15:11 -32.54513 -59.97125 36005 ft 430 kts 319°
2026-05-04 15:11 -32.49325 -60.00692 36005 ft 431 kts 319°
2026-05-04 15:12 -32.44176 -60.04232 36006 ft 430 kts 319°
2026-05-04 15:12 -32.39032 -60.07842 35981 ft 430 kts 319°
2026-05-04 15:13 -32.33886 -60.11471 35989 ft 431 kts 319°
2026-05-04 15:13 -32.28729 -60.15098 35998 ft 431 kts 319°
2026-05-04 15:14 -32.23566 -60.18717 36000 ft 431 kts 319°
2026-05-04 15:14 -32.18430 -60.22303 35998 ft 430 kts 319°
2026-05-04 15:15 -32.13269 -60.25910 36006 ft 430 kts 319°
2026-05-04 15:15 -32.08115 -60.29512 36009 ft 429 kts 319°
2026-05-04 15:16 -32.00432 -60.34861 35978 ft 429 kts 320°
2026-05-04 15:17 -31.92704 -60.40228 35986 ft 429 kts 320°
2026-05-04 15:17 -31.85022 -60.45554 35996 ft 429 kts 320°
2026-05-04 15:18 -31.79872 -60.49121 35985 ft 427 kts 320°
2026-05-04 15:19 -31.72446 -60.54763 35997 ft 423 kts 317°
2026-05-04 15:19 -31.65071 -60.60497 36002 ft 424 kts 318°
2026-05-04 15:20 -31.60133 -60.64246 35984 ft 424 kts 318°
2026-05-04 15:20 -31.55169 -60.67997 35995 ft 424 kts 318°
2026-05-04 15:21 -31.50206 -60.71759 36000 ft 424 kts 318°
2026-05-04 15:22 -31.42801 -60.77367 36002 ft 423 kts 318°
2026-05-04 15:22 -31.35391 -60.82981 35992 ft 422 kts 319°
2026-05-04 15:23 -31.30449 -60.86714 36002 ft 422 kts 319°
2026-05-04 15:23 -31.25542 -60.90407 36002 ft 422 kts 319°
2026-05-04 15:24 -31.15652 -60.97842 35986 ft 422 kts 319°
2026-05-04 15:25 -31.10730 -61.01540 35990 ft 422 kts 319°
2026-05-04 15:26 -31.03303 -61.07100 35998 ft 422 kts 319°
2026-05-04 15:26 -30.95930 -61.12614 35992 ft 421 kts 319°
2026-05-04 15:27 -30.88516 -61.18133 35994 ft 421 kts 319°
2026-05-04 15:28 -30.81113 -61.23637 35995 ft 420 kts 319°
2026-05-04 15:29 -30.73749 -61.29114 35978 ft 420 kts 319°
2026-05-04 15:30 -30.56545 -61.41843 35998 ft 419 kts 319°
2026-05-04 15:31 -30.49163 -61.47292 35991 ft 419 kts 319°
2026-05-04 15:32 -30.36886 -61.56338 35983 ft 419 kts 320°
2026-05-04 15:34 -30.27033 -61.63544 35991 ft 418 kts 319°